Time,TemperatureF,DewpointF,PressureIn,WindDirection,WindDirectionDegrees,WindSpeedMPH,WindSpeedGustMPH,Humidity,HourlyPrecipIn,Conditions,Clouds,dailyrainin,SoftwareType,DateUTC
2013-12-01 00:00:00,30.4,27.5,30.43,SSE,163,0.0,0.0,89,0.00,,OVC055,0.00,VWS V14.01,2013-12-01 05:00:00,
2013-12-01 00:01:00,30.3,27.5,30.44,SSE,163,0.0,1.0,89,0.00,,OVC055,0.00,VWS V14.01,2013-12-01 05:01:00,
2013-12-01 00:06:00,30.3,27.5,30.44,SSE,163,0.0,1.0,89,0.00,,OVC055,0.00,VWS V14.01,2013-12-01 05:06:00,
2013-12-01 00:11:00,30.3,27.5,30.44,SSE,163,0.0,1.0,89,0.00,,OVC055,0.00,VWS V14.01,2013-12-01 05:11:00,
2013-12-01 00:16:00,30.4,27.5,30.44,SSE,163,0.0,1.0,89,0.00,,OVC055,0.00,VWS V14.01,2013-12-01 05:16:00,
2013-12-01 00:21:00,30.5,27.6,30.44,SSE,163,0.0,1.0,89,0.00,,OVC055,0.00,VWS V14.01,2013-12-01 05:21:00,
2013-12-01 00:26:00,30.5,27.6,30.44,SSE,163,0.0,1.0,89,0.00,,OVC055,0.00,VWS V14.01,2013-12-01 05:26:00,
2013-12-01 00:30:00,30.5,27.6,30.44,SSE,163,0.0,1.0,89,0.00,,OVC055,0.00,VWS V14.01,2013-12-01 05:30:00,
2013-12-01 00:31:00,30.4,27.5,30.44,SSE,163,0.0,0.0,89,0.00,,OVC055,0.00,VWS V14.01,2013-12-01 05:31:00,
2013-12-01 00:36:00,30.4,27.5,30.44,SSE,163,0.0,0.0,89,0.00,,OVC055,0.00,VWS V14.01,2013-12-01 05:36:00,
2013-12-01 00:41:00,30.4,27.5,30.44,SSE,163,0.0,0.0,89,0.00,,OVC055,0.00,VWS V14.01,2013-12-01 05:41:00,
2013-12-01 00:45:00,30.4,27.5,30.43,SSE,163,0.0,0.0,89,0.00,,OVC055,0.00,VWS V14.01,2013-12-01 05:45:00,
2013-12-01 00:50:00,30.5,27.6,30.43,SSE,163,0.0,0.0,89,0.00,,OVC055,0.00,VWS V14.01,2013-12-01 05:50:00,
2013-12-01 00:55:00,30.4,27.5,30.43,SSE,163,0.0,0.0,89,0.00,,OVC055,0.00,VWS V14.01,2013-12-01 05:55:00,
2013-12-01 01:00:00,30.4,27.3,30.43,SSE,163,0.0,0.0,88,0.00,,OVC055,0.00,VWS V14.01,2013-12-01 06:00:00,
2013-12-01 01:05:00,30.3,27.2,30.42,SSE,163,0.0,0.0,88,0.00,,OVC055,0.00,VWS V14.01,2013-12-01 06:05:00,
2013-12-01 01:10:00,30.2,27.1,30.42,SSE,163,0.0,0.0,88,0.00,,OVC055,0.00,VWS V14.01,2013-12-01 06:10:00,
2013-12-01 01:15:00,30.1,27.0,30.42,SSE,163,0.0,0.0,88,0.00,,OVC055,0.00,VWS V14.01,2013-12-01 06:15:00,
2013-12-01 01:20:00,30.0,27.2,30.42,SSE,163,0.0,0.0,89,0.00,,OVC055,0.00,VWS V14.01,2013-12-01 06:20:00,
2013-12-01 01:25:00,29.9,27.1,30.42,SSE,163,0.0,0.0,89,0.00,,OVC055,0.00,VWS V14.01,2013-12-01 06:25:00,
2013-12-01 01:30:00,30.0,27.2,30.42,SSE,163,0.0,0.0,89,0.00,,OVC055,0.00,VWS V14.01,2013-12-01 06:30:00,
2013-12-01 01:35:00,30.0,27.2,30.42,SSE,163,0.0,0.0,89,0.00,,OVC055,0.00,VWS V14.01,2013-12-01 06:35:00,
2013-12-01 01:40:00,30.1,27.3,30.42,SSE,163,0.0,0.0,89,0.00,,OVC055,0.00,VWS V14.01,2013-12-01 06:40:00,
2013-12-01 01:45:00,30.1,27.5,30.42,SSE,163,0.0,0.0,90,0.00,,OVC055,0.00,VWS V14.01,2013-12-01 06:45:00,
2013-12-01 01:50:00,30.1,27.5,30.42,SSE,163,0.0,0.0,90,0.00,,OVC055,0.00,VWS V14.01,2013-12-01 06:50:00,
2013-12-01 01:55:00,30.1,27.5,30.41,SSE,163,0.0,0.0,90,0.00,,OVC055,0.00,VWS V14.01,2013-12-01 06:55:00,
2013-12-01 02:00:00,30.0,27.4,30.41,SSE,163,0.0,0.0,90,0.00,,OVC055,0.00,VWS V14.01,2013-12-01 07:00:00,
2013-12-01 02:05:00,30.0,27.4,30.41,SSE,163,0.0,0.0,90,0.00,,OVC055,0.00,VWS V14.01,2013-12-01 07:05:00,
2013-12-01 02:10:00,30.1,27.5,30.41,SSE,163,0.0,0.0,90,0.00,,OVC055,0.00,VWS V14.01,2013-12-01 07:10:00,
2013-12-01 02:15:00,30.1,27.5,30.41,SSE,163,0.0,0.0,90,0.00,,OVC055,0.00,VWS V14.01,2013-12-01 07:15:00,
2013-12-01 02:20:00,30.2,27.9,30.41,SSE,163,0.0,0.0,91,0.00,,OVC055,0.00,VWS V14.01,2013-12-01 07:20:00,
2013-12-01 02:25:00,30.2,27.6,30.41,SSE,163,0.0,0.0,90,0.00,,OVC055,0.00,VWS V14.01,2013-12-01 07:25:00,
2013-12-01 02:30:00,30.2,27.6,30.40,SSE,163,0.0,0.0,90,0.00,,OVC055,0.00,VWS V14.01,2013-12-01 07:30:00,
2013-12-01 02:35:00,30.2,27.6,30.40,SSE,163,0.0,0.0,90,0.00,,OVC055,0.00,VWS V14.01,2013-12-01 07:35:00,
2013-12-01 02:40:00,30.2,27.6,30.40,SSE,163,0.0,0.0,90,0.00,,OVC055,0.00,VWS V14.01,2013-12-01 07:40:00,
2013-12-01 02:45:00,30.2,27.6,30.39,SSE,163,0.0,0.0,90,0.00,,OVC055,0.00,VWS V14.01,2013-12-01 07:45:00,
2013-12-01 02:50:00,30.1,27.5,30.39,SSE,163,0.0,0.0,90,0.00,,OVC055,0.00,VWS V14.01,2013-12-01 07:50:00,
2013-12-01 02:55:00,30.0,27.4,30.39,SSE,163,0.0,0.0,90,0.00,,OVC055,0.00,VWS V14.01,2013-12-01 07:55:00,
2013-12-01 03:00:00,29.9,27.3,30.39,SSE,163,0.0,0.0,90,0.00,,OVC055,0.00,VWS V14.01,2013-12-01 08:00:00,
2013-12-01 03:05:00,29.7,27.1,30.39,SSE,163,0.0,0.0,90,0.00,,OVC055,0.00,VWS V14.01,2013-12-01 08:05:00,
2013-12-01 03:10:00,29.6,27.3,30.40,SSE,163,0.0,0.0,91,0.00,,OVC055,0.00,VWS V14.01,2013-12-01 08:10:00,
2013-12-01 03:15:00,29.5,27.2,30.40,SSE,163,0.0,0.0,91,0.00,,OVC055,0.00,VWS V14.01,2013-12-01 08:15:00,
2013-12-01 03:20:00,29.4,27.1,30.39,SSE,163,0.0,0.0,91,0.00,,OVC055,0.00,VWS V14.01,2013-12-01 08:20:00,
2013-12-01 03:25:00,29.4,26.8,30.39,SSE,163,0.0,0.0,90,0.00,,OVC055,0.00,VWS V14.01,2013-12-01 08:25:00,
2013-12-01 03:30:00,29.4,26.8,30.39,SSE,163,0.0,0.0,90,0.00,,OVC055,0.00,VWS V14.01,2013-12-01 08:30:00,
2013-12-01 03:35:00,29.3,26.7,30.39,SSE,163,0.0,0.0,90,0.00,,OVC055,0.00,VWS V14.01,2013-12-01 08:35:00,
2013-12-01 03:40:00,29.2,26.6,30.39,SSE,163,0.0,0.0,90,0.00,,OVC055,0.00,VWS V14.01,2013-12-01 08:40:00,
2013-12-01 03:45:00,29.1,26.8,30.39,SSE,163,0.0,0.0,91,0.00,,OVC055,0.00,VWS V14.01,2013-12-01 08:45:00,
2013-12-01 03:50:00,29.0,26.7,30.39,SSE,163,0.0,0.0,91,0.00,,OVC055,0.00,VWS V14.01,2013-12-01 08:50:00,
2013-12-01 03:55:00,28.8,26.5,30.39,SSE,163,0.0,0.0,91,0.00,,OVC055,0.00,VWS V14.01,2013-12-01 08:55:00,
2013-12-01 04:00:00,28.8,26.5,30.38,SSE,163,0.0,0.0,91,0.00,,OVC055,0.00,VWS V14.01,2013-12-01 09:00:00,
2013-12-01 04:01:00,28.8,26.8,30.39,SSE,163,0.0,0.0,92,0.00,,OVC055,0.00,VWS V14.01,2013-12-01 09:01:00,
2013-12-01 04:06:00,28.7,26.7,30.38,SSE,163,0.0,0.0,92,0.00,,OVC055,0.00,VWS V14.01,2013-12-01 09:06:00,
2013-12-01 04:11:00,28.6,26.6,30.38,SSE,163,0.0,0.0,92,0.00,,OVC055,0.00,VWS V14.01,2013-12-01 09:11:00,
2013-12-01 04:16:00,28.5,26.5,30.38,SSE,163,0.0,0.0,92,0.00,,OVC055,0.00,VWS V14.01,2013-12-01 09:16:00,
2013-12-01 04:21:00,28.4,26.4,30.38,SSE,163,0.0,1.0,92,0.00,,OVC055,0.00,VWS V14.01,2013-12-01 09:21:00,
2013-12-01 04:26:00,28.3,26.3,30.37,SSE,163,0.0,1.0,92,0.00,,OVC055,0.00,VWS V14.01,2013-12-01 09:26:00,
2013-12-01 04:30:00,28.3,26.3,30.37,SSE,163,0.0,1.0,92,0.00,,OVC055,0.00,VWS V14.01,2013-12-01 09:30:00,
2013-12-01 04:31:00,28.2,26.2,30.37,SSE,163,0.0,0.0,92,0.00,,OVC055,0.00,VWS V14.01,2013-12-01 09:31:00,
2013-12-01 04:36:00,28.1,26.3,30.37,SSE,163,0.0,0.0,93,0.00,,OVC055,0.00,VWS V14.01,2013-12-01 09:36:00,
2013-12-01 04:41:00,28.1,26.3,30.37,SSE,163,0.0,0.0,93,0.00,,OVC055,0.00,VWS V14.01,2013-12-01 09:41:00,
2013-12-01 04:46:00,28.1,26.3,30.37,SSE,163,0.0,0.0,93,0.00,,OVC055,0.00,VWS V14.01,2013-12-01 09:46:00,
2013-12-01 04:51:00,28.1,26.3,30.37,SSE,163,0.0,0.0,93,0.00,,OVC055,0.00,VWS V14.01,2013-12-01 09:51:00,
2013-12-01 04:56:00,28.0,26.5,30.37,SSE,163,0.0,0.0,94,0.00,,OVC055,0.00,VWS V14.01,2013-12-01 09:56:00,
2013-12-01 05:00:00,28.0,26.2,30.37,SSE,163,0.0,0.0,93,0.00,,OVC055,0.00,VWS V14.01,2013-12-01 10:00:00,
2013-12-01 05:01:00,27.9,26.1,30.37,SSE,163,0.0,0.0,93,0.00,,OVC055,0.00,VWS V14.01,2013-12-01 10:01:00,
2013-12-01 05:05:00,27.8,26.0,30.36,SSE,163,0.0,0.0,93,0.00,,OVC055,0.00,VWS V14.01,2013-12-01 10:05:00,
2013-12-01 05:10:00,27.7,25.9,30.36,SSE,163,0.0,0.0,93,0.00,,OVC055,0.00,VWS V14.01,2013-12-01 10:10:00,
2013-12-01 05:15:00,27.5,26.0,30.36,SSE,163,0.0,0.0,94,0.00,,OVC055,0.00,VWS V14.01,2013-12-01 10:15:00,
2013-12-01 05:20:00,27.5,26.0,30.36,SSE,163,0.0,0.0,94,0.00,,OVC055,0.00,VWS V14.01,2013-12-01 10:20:00,
2013-12-01 05:25:00,27.4,25.9,30.36,SSE,163,0.0,0.0,94,0.00,,OVC055,0.00,VWS V14.01,2013-12-01 10:25:00,
2013-12-01 05:30:00,27.4,25.9,30.36,SSE,163,0.0,0.0,94,0.00,,OVC055,0.00,VWS V14.01,2013-12-01 10:30:00,
2013-12-01 05:35:00,27.4,25.9,30.36,SSE,163,0.0,0.0,94,0.00,,OVC055,0.00,VWS V14.01,2013-12-01 10:35:00,
2013-12-01 05:40:00,27.3,25.8,30.36,SSE,163,0.0,0.0,94,0.00,,OVC055,0.00,VWS V14.01,2013-12-01 10:40:00,
2013-12-01 05:45:00,27.3,25.8,30.36,SSE,163,0.0,0.0,94,0.00,,OVC055,0.00,VWS V14.01,2013-12-01 10:45:00,
2013-12-01 05:50:00,27.2,25.7,30.36,SSE,163,0.0,0.0,94,0.00,,OVC055,0.00,VWS V14.01,2013-12-01 10:50:00,
2013-12-01 05:55:00,27.1,25.6,30.36,SSE,163,0.0,0.0,94,0.00,,OVC055,0.00,VWS V14.01,2013-12-01 10:55:00,
2013-12-01 06:00:00,27.1,25.6,30.36,SSE,163,0.0,0.0,94,0.00,,OVC055,0.00,VWS V14.01,2013-12-01 11:00:00,
2013-12-01 06:05:00,27.1,25.6,30.36,SSE,163,0.0,0.0,94,0.00,,OVC055,0.00,VWS V14.01,2013-12-01 11:05:00,
2013-12-01 06:10:00,27.1,25.9,30.36,SSE,163,0.0,0.0,95,0.00,,OVC055,0.00,VWS V14.01,2013-12-01 11:10:00,
2013-12-01 06:15:00,27.1,25.9,30.36,SSE,163,0.0,0.0,95,0.00,,OVC055,0.00,VWS V14.01,2013-12-01 11:15:00,
2013-12-01 06:20:00,27.0,25.8,30.36,SSE,163,0.0,0.0,95,0.00,,OVC055,0.00,VWS V14.01,2013-12-01 11:20:00,
2013-12-01 06:25:00,27.0,25.8,30.35,SSE,163,0.0,0.0,95,0.00,,OVC055,0.00,VWS V14.01,2013-12-01 11:25:00,
2013-12-01 06:30:00,26.9,25.7,30.36,SSE,163,0.0,0.0,95,0.00,,OVC055,0.00,VWS V14.01,2013-12-01 11:30:00,
2013-12-01 06:35:00,26.8,25.6,30.36,SSE,163,0.0,0.0,95,0.00,,OVC055,0.00,VWS V14.01,2013-12-01 11:35:00,
2013-12-01 06:40:00,26.7,25.5,30.35,SSE,163,0.0,0.0,95,0.00,,OVC055,0.00,VWS V14.01,2013-12-01 11:40:00,
2013-12-01 06:45:00,26.7,25.5,30.35,SSE,163,0.0,0.0,95,0.00,,OVC055,0.00,VWS V14.01,2013-12-01 11:45:00,
2013-12-01 06:50:00,26.7,25.5,30.35,SSE,163,0.0,0.0,95,0.00,,OVC055,0.00,VWS V14.01,2013-12-01 11:50:00,
2013-12-01 06:55:00,26.6,25.6,30.35,SSE,163,0.0,0.0,96,0.00,,OVC055,0.00,VWS V14.01,2013-12-01 11:55:00,
2013-12-01 07:00:00,26.6,25.6,30.35,SSE,163,0.0,0.0,96,0.00,,OVC055,0.00,VWS V14.01,2013-12-01 12:00:00,
2013-12-01 07:05:00,26.6,25.6,30.35,SSE,163,0.0,0.0,96,0.00,,OVC055,0.00,VWS V14.01,2013-12-01 12:05:00,
2013-12-01 07:10:00,26.6,25.6,30.35,SSE,163,0.0,0.0,96,0.00,,OVC055,0.00,VWS V14.01,2013-12-01 12:10:00,
2013-12-01 07:15:00,26.6,25.6,30.35,SSE,163,0.0,0.0,96,0.00,,OVC055,0.00,VWS V14.01,2013-12-01 12:15:00,
2013-12-01 07:20:00,26.6,25.6,30.35,SSE,163,0.0,0.0,96,0.00,,OVC055,0.00,VWS V14.01,2013-12-01 12:20:00,
2013-12-01 07:25:00,26.5,25.5,30.35,SSE,163,0.0,0.0,96,0.00,,OVC055,0.00,VWS V14.01,2013-12-01 12:25:00,
2013-12-01 07:30:00,26.5,25.5,30.35,SSE,163,0.0,0.0,96,0.00,,OVC055,0.00,VWS V14.01,2013-12-01 12:30:00,
2013-12-01 07:35:00,26.5,25.5,30.35,SSE,163,0.0,0.0,96,0.00,,OVC055,0.00,VWS V14.01,2013-12-01 12:35:00,
2013-12-01 07:40:00,26.4,25.4,30.35,SSE,163,0.0,0.0,96,0.00,,OVC055,0.00,VWS V14.01,2013-12-01 12:40:00,
2013-12-01 07:45:00,26.3,25.3,30.35,SSE,163,0.0,0.0,96,0.00,,OVC055,0.00,VWS V14.01,2013-12-01 12:45:00,
2013-12-01 07:50:00,26.3,25.3,30.35,SSE,163,0.0,0.0,96,0.00,,OVC055,0.00,VWS V14.01,2013-12-01 12:50:00,
2013-12-01 07:55:00,26.3,25.3,30.35,SSE,163,0.0,0.0,96,0.00,,OVC055,0.00,VWS V14.01,2013-12-01 12:55:00,
2013-12-01 08:00:00,26.2,25.2,30.34,SSE,163,0.0,0.0,96,0.00,,OVC055,0.00,VWS V14.01,2013-12-01 13:00:00,
2013-12-01 08:05:00,26.3,25.3,30.35,SSE,163,0.0,0.0,96,0.00,,OVC055,0.00,VWS V14.01,2013-12-01 13:05:00,
2013-12-01 08:10:00,26.3,25.6,30.34,SSE,163,0.0,0.0,97,0.00,,OVC055,0.00,VWS V14.01,2013-12-01 13:10:00,
2013-12-01 08:15:00,26.3,25.3,30.34,SSE,163,0.0,0.0,96,0.00,,OVC055,0.00,VWS V14.01,2013-12-01 13:15:00,
2013-12-01 08:20:00,26.4,25.7,30.34,SSE,163,0.0,0.0,97,0.00,,OVC055,0.00,VWS V14.01,2013-12-01 13:20:00,
2013-12-01 08:25:00,26.4,25.7,30.34,SSE,163,0.0,0.0,97,0.00,,OVC055,0.00,VWS V14.01,2013-12-01 13:25:00,
2013-12-01 08:30:00,26.5,25.8,30.34,SSE,163,0.0,0.0,97,0.00,,OVC055,0.00,VWS V14.01,2013-12-01 13:30:00,
2013-12-01 08:35:00,26.7,26.0,30.35,SSE,163,0.0,0.0,97,0.00,,OVC055,0.00,VWS V14.01,2013-12-01 13:35:00,
2013-12-01 08:40:00,26.9,26.2,30.35,SSE,163,0.0,0.0,97,0.00,,OVC055,0.00,VWS V14.01,2013-12-01 13:40:00,
2013-12-01 08:45:00,27.3,26.8,30.35,SSE,163,0.0,0.0,98,0.00,,OVC055,0.00,VWS V14.01,2013-12-01 13:45:00,
2013-12-01 08:50:00,27.5,26.8,30.35,SSE,163,0.0,0.0,97,0.00,,OVC055,0.00,VWS V14.01,2013-12-01 13:50:00,
2013-12-01 08:55:00,27.8,27.3,30.35,SSE,163,0.0,0.0,98,0.00,,OVC055,0.00,VWS V14.01,2013-12-01 13:55:00,
2013-12-01 09:00:00,28.2,27.7,30.35,SSE,163,0.0,0.0,98,0.00,,OVC055,0.00,VWS V14.01,2013-12-01 14:00:00,
2013-12-01 09:05:00,28.5,28.0,30.35,SSE,163,0.0,0.0,98,0.00,,OVC055,0.00,VWS V14.01,2013-12-01 14:05:00,
2013-12-01 09:10:00,28.8,28.1,30.35,SSE,163,0.0,0.0,97,0.00,,OVC055,0.00,VWS V14.01,2013-12-01 14:10:00,
2013-12-01 09:15:00,29.1,28.4,30.35,SSE,163,0.0,0.0,97,0.00,,OVC055,0.00,VWS V14.01,2013-12-01 14:15:00,
2013-12-01 09:20:00,29.5,28.8,30.35,SSE,163,0.0,1.0,97,0.00,,OVC055,0.00,VWS V14.01,2013-12-01 14:20:00,
2013-12-01 09:25:00,29.9,28.9,30.35,SSE,163,0.0,1.0,96,0.00,,OVC055,0.00,VWS V14.01,2013-12-01 14:25:00,
2013-12-01 09:30:00,30.3,29.3,30.34,SSE,163,0.0,0.0,96,0.00,,OVC055,0.00,VWS V14.01,2013-12-01 14:30:00,
2013-12-01 09:35:00,30.6,29.3,30.34,SSE,163,0.0,0.0,95,0.00,,OVC055,0.00,VWS V14.01,2013-12-01 14:35:00,
2013-12-01 09:40:00,31.3,30.0,30.34,SSE,163,0.0,1.0,95,0.00,,OVC055,0.00,VWS V14.01,2013-12-01 14:40:00,
2013-12-01 09:45:00,31.9,30.6,30.34,SSE,163,0.0,1.0,95,0.00,,OVC055,0.00,VWS V14.01,2013-12-01 14:45:00,
2013-12-01 09:50:00,32.4,30.9,30.34,SSE,163,0.0,1.0,94,0.00,,OVC055,0.00,VWS V14.01,2013-12-01 14:50:00,
2013-12-01 09:55:00,33.3,31.5,30.34,SSE,163,0.0,2.0,93,0.00,,OVC055,0.00,VWS V14.01,2013-12-01 14:55:00,
2013-12-01 10:00:00,34.0,31.6,30.33,SE,146,1.0,2.0,91,0.00,,OVC055,0.00,VWS V14.01,2013-12-01 15:00:00,
2013-12-01 10:05:00,34.7,32.1,30.33,SE,146,1.0,2.0,90,0.00,,OVC055,0.00,VWS V14.01,2013-12-01 15:05:00,
2013-12-01 10:10:00,35.4,32.5,30.33,SE,146,1.0,2.0,89,0.00,,OVC055,0.00,VWS V14.01,2013-12-01 15:10:00,
2013-12-01 10:15:00,36.1,33.2,30.33,SE,146,0.0,2.0,89,0.00,,OVC055,0.00,VWS V14.01,2013-12-01 15:15:00,
2013-12-01 10:20:00,36.8,33.6,30.32,SE,146,0.0,2.0,88,0.00,,OVC055,0.00,VWS V14.01,2013-12-01 15:20:00,
2013-12-01 10:25:00,37.9,34.1,30.32,SE,146,1.0,2.0,86,0.00,,OVC055,0.00,VWS V14.01,2013-12-01 15:25:00,
2013-12-01 10:30:00,39.0,34.9,30.32,SE,146,0.0,0.0,85,0.00,,OVC055,0.00,VWS V14.01,2013-12-01 15:30:00,
2013-12-01 10:35:00,40.0,35.3,30.32,SE,146,0.0,1.0,83,0.00,,OVC055,0.00,VWS V14.01,2013-12-01 15:35:00,
2013-12-01 10:40:00,40.8,35.7,30.31,SE,146,1.0,1.0,82,0.00,,OVC055,0.00,VWS V14.01,2013-12-01 15:40:00,
2013-12-01 10:45:00,42.0,36.3,30.31,SE,142,0.0,2.0,80,0.00,,OVC055,0.00,VWS V14.01,2013-12-01 15:45:00,
2013-12-01 10:50:00,42.8,37.1,30.31,SE,142,1.0,2.0,80,0.00,,OVC055,0.00,VWS V14.01,2013-12-01 15:50:00,
2013-12-01 10:55:00,43.7,37.3,30.30,SE,142,0.0,2.0,78,0.00,,OVC055,0.00,VWS V14.01,2013-12-01 15:55:00,
2013-12-01 11:00:00,44.5,37.8,30.30,SE,142,0.0,2.0,77,0.00,,OVC055,0.00,VWS V14.01,2013-12-01 16:00:00,
2013-12-01 11:05:00,45.2,38.1,30.30,SE,142,0.0,2.0,76,0.00,,OVC055,0.00,VWS V14.01,2013-12-01 16:05:00,
2013-12-01 11:10:00,46.1,38.3,30.29,SE,142,0.0,2.0,74,0.00,,OVC055,0.00,VWS V14.01,2013-12-01 16:10:00,
2013-12-01 11:15:00,46.8,38.3,30.29,SE,142,1.0,2.0,72,0.00,,OVC055,0.00,VWS V14.01,2013-12-01 16:15:00,
2013-12-01 11:20:00,47.8,39.2,30.29,SE,142,0.0,2.0,72,0.00,,OVC055,0.00,VWS V14.01,2013-12-01 16:20:00,
2013-12-01 11:25:00,48.7,39.4,30.28,SE,142,0.0,2.0,70,0.00,,OVC055,0.00,VWS V14.01,2013-12-01 16:25:00,
2013-12-01 11:30:00,49.8,40.0,30.27,SE,142,0.0,0.0,69,0.00,,OVC055,0.00,VWS V14.01,2013-12-01 16:30:00,
2013-12-01 11:35:00,50.5,40.3,30.27,SE,126,0.0,2.0,68,0.00,,OVC055,0.00,VWS V14.01,2013-12-01 16:35:00,
2013-12-01 11:40:00,51.0,40.4,30.26,SE,126,0.0,2.0,67,0.00,,OVC055,0.00,VWS V14.01,2013-12-01 16:40:00,
2013-12-01 11:45:00,50.9,40.3,30.26,SE,126,0.0,2.0,67,0.00,,OVC055,0.00,VWS V14.01,2013-12-01 16:45:00,
2013-12-01 11:50:00,51.3,40.7,30.25,SE,126,0.0,2.0,67,0.00,,OVC055,0.00,VWS V14.01,2013-12-01 16:50:00,
2013-12-01 11:55:00,51.7,41.1,30.25,NNW,329,3.0,5.0,67,0.00,,OVC055,0.00,VWS V14.01,2013-12-01 16:55:00,
2013-12-01 12:00:00,52.4,41.4,30.24,SSE,159,2.0,4.0,66,0.00,,OVC055,0.00,VWS V14.01,2013-12-01 17:00:00,
2013-12-01 12:05:00,53.2,41.3,30.24,West,281,1.0,4.0,64,0.00,,OVC055,0.00,VWS V14.01,2013-12-01 17:05:00,
2013-12-01 12:10:00,54.0,42.1,30.24,West,267,0.0,4.0,64,0.00,,OVC055,0.00,VWS V14.01,2013-12-01 17:10:00,
2013-12-01 12:15:00,54.5,41.8,30.23,NE,53,4.0,5.0,62,0.00,,OVC055,0.00,VWS V14.01,2013-12-01 17:15:00,
2013-12-01 12:20:00,54.9,42.1,30.23,North,11,1.0,5.0,62,0.00,,OVC055,0.00,VWS V14.01,2013-12-01 17:20:00,
2013-12-01 12:24:00,55.0,41.4,30.22,SSW,209,0.0,5.0,60,0.00,,OVC055,0.00,VWS V14.01,2013-12-01 17:24:00,
2013-12-01 12:29:00,55.3,42.5,30.22,WNW,295,0.0,3.0,62,0.00,,OVC055,0.00,VWS V14.01,2013-12-01 17:29:00,
2013-12-01 12:30:00,55.2,41.1,30.22,SSW,209,1.0,5.0,59,0.00,,OVC055,0.00,VWS V14.01,2013-12-01 17:30:00,
2013-12-01 12:34:00,55.4,42.6,30.21,NNE,18,0.0,3.0,62,0.00,,OVC055,0.00,VWS V14.01,2013-12-01 17:34:00,
2013-12-01 12:39:00,55.6,42.0,30.21,South,175,0.0,5.0,60,0.00,,OVC055,0.00,VWS V14.01,2013-12-01 17:39:00,
2013-12-01 12:44:00,55.6,41.5,30.20,SSW,207,0.0,5.0,59,0.00,,OVC055,0.00,VWS V14.01,2013-12-01 17:44:00,
2013-12-01 12:49:00,55.6,41.1,30.20,SSE,156,1.0,5.0,58,0.00,,OVC055,0.00,VWS V14.01,2013-12-01 17:49:00,
2013-12-01 12:54:00,55.7,42.0,30.20,SSE,157,1.0,5.0,60,0.00,,OVC055,0.00,VWS V14.01,2013-12-01 17:54:00,
2013-12-01 12:59:00,55.9,41.3,30.20,WNW,292,0.0,2.0,58,0.00,,OVC055,0.00,VWS V14.01,2013-12-01 17:59:00,
2013-12-01 13:00:00,55.8,41.7,30.20,WNW,282,2.0,7.0,59,0.00,,OVC055,0.00,VWS V14.01,2013-12-01 18:00:00,
2013-12-01 13:04:00,56.0,41.5,30.19,WNW,290,5.0,5.0,58,0.00,,OVC055,0.00,VWS V14.01,2013-12-01 18:04:00,
2013-12-01 13:09:00,55.9,40.5,30.19,WSW,244,0.0,7.0,56,0.00,,OVC055,0.00,VWS V14.01,2013-12-01 18:09:00,
2013-12-01 13:14:00,56.0,41.5,30.19,SSW,196,0.0,7.0,58,0.00,,OVC055,0.00,VWS V14.01,2013-12-01 18:14:00,
2013-12-01 13:19:00,56.0,40.5,30.18,SW,217,5.0,7.0,56,0.00,,OVC055,0.00,VWS V14.01,2013-12-01 18:19:00,
2013-12-01 13:24:00,56.1,41.5,30.18,NW,320,1.0,7.0,58,0.00,,OVC055,0.00,VWS V14.01,2013-12-01 18:24:00,
2013-12-01 13:29:00,56.1,41.1,30.18,SSE,150,1.0,3.0,57,0.00,,OVC055,0.00,VWS V14.01,2013-12-01 18:29:00,
2013-12-01 13:30:00,56.2,42.1,30.18,NE,44,2.0,7.0,59,0.00,,OVC055,0.00,VWS V14.01,2013-12-01 18:30:00,
2013-12-01 13:34:00,56.1,42.0,30.18,SE,130,0.0,3.0,59,0.00,,OVC055,0.00,VWS V14.01,2013-12-01 18:34:00,
2013-12-01 13:39:00,56.1,41.5,30.17,SW,218,0.0,5.0,58,0.00,,OVC055,0.00,VWS V14.01,2013-12-01 18:39:00,
2013-12-01 13:44:00,56.0,41.5,30.17,WNW,296,2.0,5.0,58,0.00,,OVC055,0.00,VWS V14.01,2013-12-01 18:44:00,
2013-12-01 13:49:00,55.9,40.9,30.17,WSW,248,2.0,5.0,57,0.00,,OVC055,0.00,VWS V14.01,2013-12-01 18:49:00,
2013-12-01 13:54:00,55.9,40.0,30.17,South,169,1.0,8.0,55,0.00,,OVC055,0.00,VWS V14.01,2013-12-01 18:54:00,
2013-12-01 13:59:00,55.8,40.4,30.16,NE,44,1.0,1.0,56,0.00,,OVC055,0.00,VWS V14.01,2013-12-01 18:59:00,
2013-12-01 14:00:00,55.9,40.5,30.16,SSW,195,1.0,8.0,56,0.00,,OVC055,0.00,VWS V14.01,2013-12-01 19:00:00,
2013-12-01 14:04:00,55.7,40.7,30.16,South,176,1.0,4.0,57,0.00,,OVC055,0.00,VWS V14.01,2013-12-01 19:04:00,
2013-12-01 14:09:00,55.5,41.0,30.16,WSW,255,2.0,4.0,58,0.00,,OVC055,0.00,VWS V14.01,2013-12-01 19:09:00,
2013-12-01 14:14:00,55.3,40.8,30.16,WSW,254,0.0,4.0,58,0.00,,OVC055,0.00,VWS V14.01,2013-12-01 19:14:00,
2013-12-01 14:19:00,55.1,40.6,30.16,NE,46,2.0,5.0,58,0.00,,OVC055,0.00,VWS V14.01,2013-12-01 19:19:00,
2013-12-01 14:24:00,54.9,40.9,30.15,North,355,0.0,5.0,59,0.00,,OVC055,0.00,VWS V14.01,2013-12-01 19:24:00,
2013-12-01 14:29:00,54.6,40.1,30.15,SW,230,0.0,2.0,58,0.00,,OVC055,0.00,VWS V14.01,2013-12-01 19:29:00,
2013-12-01 14:30:00,54.7,40.2,30.15,SW,230,0.0,5.0,58,0.00,,OVC055,0.00,VWS V14.01,2013-12-01 19:30:00,
2013-12-01 14:34:00,54.3,40.7,30.15,WNW,291,3.0,4.0,60,0.00,,OVC055,0.00,VWS V14.01,2013-12-01 19:34:00,
2013-12-01 14:38:00,54.0,40.0,30.15,West,274,0.0,6.0,59,0.00,,OVC055,0.00,VWS V14.01,2013-12-01 19:38:00,
2013-12-01 14:43:00,53.9,40.3,30.15,SW,223,0.0,6.0,60,0.00,,OVC055,0.00,VWS V14.01,2013-12-01 19:43:00,
2013-12-01 14:48:00,53.6,40.1,30.15,South,177,0.0,6.0,60,0.00,,OVC055,0.00,VWS V14.01,2013-12-01 19:48:00,
2013-12-01 14:53:00,53.1,39.6,30.15,West,267,0.0,6.0,60,0.00,,OVC055,0.00,VWS V14.01,2013-12-01 19:53:00,
2013-12-01 14:58:00,52.7,39.6,30.15,West,265,3.0,3.0,61,0.00,,OVC055,0.00,VWS V14.01,2013-12-01 19:58:00,
2013-12-01 15:00:00,52.7,39.6,30.15,WSW,248,3.0,6.0,61,0.00,,OVC055,0.00,VWS V14.01,2013-12-01 20:00:00,
2013-12-01 15:03:00,52.3,39.3,30.14,SW,221,0.0,4.0,61,0.00,,OVC055,0.00,VWS V14.01,2013-12-01 20:03:00,
2013-12-01 15:08:00,52.0,39.0,30.14,SW,229,1.0,4.0,61,0.00,,OVC055,0.00,VWS V14.01,2013-12-01 20:08:00,
2013-12-01 15:13:00,51.8,39.2,30.14,WSW,248,2.0,4.0,62,0.00,,OVC055,0.00,VWS V14.01,2013-12-01 20:13:00,
2013-12-01 15:18:00,51.4,39.2,30.14,SSW,201,1.0,4.0,63,0.00,,OVC055,0.00,VWS V14.01,2013-12-01 20:18:00,
2013-12-01 15:23:00,51.0,38.5,30.14,SSW,200,0.0,4.0,62,0.00,,OVC055,0.00,VWS V14.01,2013-12-01 20:23:00,
2013-12-01 15:27:00,50.7,38.6,30.14,SW,226,1.0,4.0,63,0.00,,OVC055,0.00,VWS V14.01,2013-12-01 20:27:00,
2013-12-01 15:30:00,50.7,38.6,30.14,SW,226,0.0,4.0,63,0.00,,OVC055,0.00,VWS V14.01,2013-12-01 20:30:00,
2013-12-01 15:32:00,50.4,38.7,30.14,SSE,166,1.0,5.0,64,0.00,,OVC055,0.00,VWS V14.01,2013-12-01 20:32:00,
2013-12-01 15:37:00,50.2,38.5,30.14,SW,219,0.0,7.0,64,0.00,,OVC055,0.00,VWS V14.01,2013-12-01 20:37:00,
2013-12-01 15:42:00,50.0,38.3,30.14,SSW,205,0.0,7.0,64,0.00,,OVC055,0.00,VWS V14.01,2013-12-01 20:42:00,
2013-12-01 15:47:00,49.7,38.4,30.14,SW,219,0.0,7.0,65,0.00,,OVC055,0.00,VWS V14.01,2013-12-01 20:47:00,
2013-12-01 15:52:00,49.5,37.8,30.14,SSW,207,2.0,7.0,64,0.00,,OVC055,0.00,VWS V14.01,2013-12-01 20:52:00,
2013-12-01 15:57:00,49.2,38.0,30.14,SSE,159,2.0,7.0,65,0.00,,OVC055,0.00,VWS V14.01,2013-12-01 20:57:00,
2013-12-01 16:00:00,49.2,38.0,30.14,SSE,159,1.0,7.0,65,0.00,,OVC055,0.00,VWS V14.01,2013-12-01 21:00:00,
2013-12-01 16:02:00,49.0,37.4,30.14,SSW,196,0.0,4.0,64,0.00,,OVC055,0.00,VWS V14.01,2013-12-01 21:02:00,
2013-12-01 16:07:00,48.7,37.5,30.14,SSW,193,0.0,4.0,65,0.00,,OVC055,0.00,VWS V14.01,2013-12-01 21:07:00,
2013-12-01 16:12:00,48.4,37.2,30.14,West,267,0.0,4.0,65,0.00,,OVC055,0.00,VWS V14.01,2013-12-01 21:12:00,
2013-12-01 16:17:00,48.1,36.9,30.14,West,268,0.0,4.0,65,0.00,,OVC055,0.00,VWS V14.01,2013-12-01 21:17:00,
2013-12-01 16:22:00,47.9,37.1,30.13,West,267,0.0,4.0,66,0.00,,OVC055,0.00,VWS V14.01,2013-12-01 21:22:00,
2013-12-01 16:27:00,47.7,36.9,30.13,West,267,0.0,4.0,66,0.00,,OVC055,0.00,VWS V14.01,2013-12-01 21:27:00,
2013-12-01 16:30:00,47.7,36.9,30.13,West,267,0.0,4.0,66,0.00,,OVC055,0.00,VWS V14.01,2013-12-01 21:30:00,
2013-12-01 16:32:00,47.3,36.9,30.13,SSW,203,0.0,3.0,67,0.00,,OVC055,0.00,VWS V14.01,2013-12-01 21:32:00,
2013-12-01 16:37:00,47.1,37.1,30.13,WSW,246,2.0,3.0,68,0.00,,OVC055,0.00,VWS V14.01,2013-12-01 21:37:00,
2013-12-01 16:42:00,46.8,36.8,30.13,WSW,246,0.0,3.0,68,0.00,,OVC055,0.00,VWS V14.01,2013-12-01 21:42:00,
2013-12-01 16:47:00,46.5,36.5,30.14,WSW,246,0.0,3.0,68,0.00,,OVC055,0.00,VWS V14.01,2013-12-01 21:47:00,
2013-12-01 16:52:00,46.2,36.6,30.13,WSW,246,0.0,3.0,69,0.00,,OVC055,0.00,VWS V14.01,2013-12-01 21:52:00,
2013-12-01 16:57:00,45.9,36.7,30.13,WSW,246,0.0,3.0,70,0.00,,OVC055,0.00,VWS V14.01,2013-12-01 21:57:00,
2013-12-01 17:00:00,45.9,36.7,30.13,WSW,246,0.0,3.0,70,0.00,,OVC055,0.00,VWS V14.01,2013-12-01 22:00:00,
2013-12-01 17:02:00,45.6,36.4,30.14,WSW,245,0.0,2.0,70,0.00,,OVC055,0.00,VWS V14.01,2013-12-01 22:02:00,
2013-12-01 17:07:00,45.3,36.5,30.14,West,266,0.0,2.0,71,0.00,,OVC055,0.00,VWS V14.01,2013-12-01 22:07:00,
2013-12-01 17:12:00,45.1,36.6,30.13,West,266,0.0,2.0,72,0.00,,OVC055,0.00,VWS V14.01,2013-12-01 22:12:00,
2013-12-01 17:17:00,45.0,36.5,30.13,West,266,0.0,2.0,72,0.00,,OVC055,0.00,VWS V14.01,2013-12-01 22:17:00,
2013-12-01 17:22:00,44.9,36.4,30.14,West,266,0.0,2.0,72,0.00,,OVC055,0.00,VWS V14.01,2013-12-01 22:22:00,
2013-12-01 17:27:00,44.9,36.4,30.14,West,266,0.0,2.0,72,0.00,,OVC055,0.00,VWS V14.01,2013-12-01 22:27:00,
2013-12-01 17:30:00,44.9,36.4,30.14,West,266,1.0,2.0,72,0.00,,OVC055,0.00,VWS V14.01,2013-12-01 22:30:00,
2013-12-01 17:32:00,44.6,36.5,30.14,West,266,0.0,1.0,73,0.00,,OVC055,0.00,VWS V14.01,2013-12-01 22:32:00,
2013-12-01 17:37:00,44.1,36.4,30.14,West,266,0.0,1.0,74,0.00,,OVC055,0.00,VWS V14.01,2013-12-01 22:37:00,
2013-12-01 17:42:00,43.6,36.2,30.14,West,266,0.0,1.0,75,0.00,,OVC055,0.00,VWS V14.01,2013-12-01 22:42:00,
2013-12-01 17:47:00,43.1,36.1,30.14,West,266,1.0,1.0,76,0.00,,OVC055,0.00,VWS V14.01,2013-12-01 22:47:00,
2013-12-01 17:52:00,42.7,36.0,30.14,West,266,0.0,1.0,77,0.00,,OVC055,0.00,VWS V14.01,2013-12-01 22:52:00,
2013-12-01 17:57:00,42.3,35.9,30.14,West,266,1.0,1.0,78,0.00,,OVC055,0.00,VWS V14.01,2013-12-01 22:57:00,
2013-12-01 18:00:00,42.3,35.9,30.14,West,266,0.0,1.0,78,0.00,,OVC055,0.00,VWS V14.01,2013-12-01 23:00:00,
2013-12-01 18:02:00,42.3,35.9,30.13,West,266,2.0,2.0,78,0.00,,OVC055,0.00,VWS V14.01,2013-12-01 23:02:00,
2013-12-01 18:07:00,42.3,35.9,30.14,West,266,0.0,2.0,78,0.00,,OVC055,0.00,VWS V14.01,2013-12-01 23:07:00,
2013-12-01 18:12:00,41.5,35.5,30.14,West,266,1.0,2.0,79,0.00,,OVC055,0.00,VWS V14.01,2013-12-01 23:12:00,
2013-12-01 18:17:00,40.8,35.1,30.14,West,266,0.0,2.0,80,0.00,,OVC055,0.00,VWS V14.01,2013-12-01 23:17:00,
2013-12-01 18:22:00,40.7,35.3,30.13,West,266,0.0,2.0,81,0.00,,OVC055,0.00,VWS V14.01,2013-12-01 23:22:00,
2013-12-01 18:27:00,40.9,35.5,30.13,West,266,0.0,2.0,81,0.00,,OVC055,0.00,VWS V14.01,2013-12-01 23:27:00,
2013-12-01 18:30:00,40.9,35.5,30.13,West,266,0.0,2.0,81,0.00,,OVC055,0.00,VWS V14.01,2013-12-01 23:30:00,
2013-12-01 18:32:00,40.8,35.4,30.14,West,266,0.0,1.0,81,0.00,,OVC055,0.00,VWS V14.01,2013-12-01 23:32:00,
2013-12-01 18:37:00,40.0,35.0,30.14,West,266,1.0,1.0,82,0.00,,OVC055,0.00,VWS V14.01,2013-12-01 23:37:00,
2013-12-01 18:42:00,39.5,35.1,30.13,West,266,0.0,1.0,84,0.00,,OVC055,0.00,VWS V14.01,2013-12-01 23:42:00,
2013-12-01 18:47:00,39.1,34.7,30.13,West,266,0.0,1.0,84,0.00,,OVC055,0.00,VWS V14.01,2013-12-01 23:47:00,
2013-12-01 18:52:00,38.8,34.7,30.13,West,266,0.0,1.0,85,0.00,,OVC055,0.00,VWS V14.01,2013-12-01 23:52:00,
2013-12-01 18:57:00,38.6,34.8,30.13,West,266,0.0,1.0,86,0.00,,OVC055,0.00,VWS V14.01,2013-12-01 23:57:00,
2013-12-01 19:00:00,38.6,34.8,30.13,West,266,0.0,1.0,86,0.00,,OVC055,0.00,VWS V14.01,2013-12-02 00:00:00,
2013-12-01 19:02:00,38.5,34.7,30.14,West,266,0.0,0.0,86,0.00,,OVC055,0.00,VWS V14.01,2013-12-02 00:02:00,
2013-12-01 19:07:00,38.3,34.5,30.14,West,266,0.0,0.0,86,0.00,,OVC055,0.00,VWS V14.01,2013-12-02 00:07:00,
2013-12-01 19:12:00,37.9,34.4,30.14,West,266,0.0,0.0,87,0.00,,OVC055,0.00,VWS V14.01,2013-12-02 00:12:00,
2013-12-01 19:17:00,37.7,34.2,30.14,West,266,0.0,0.0,87,0.00,,OVC055,0.00,VWS V14.01,2013-12-02 00:17:00,
2013-12-01 19:22:00,37.5,34.3,30.14,West,266,0.0,0.0,88,0.00,,OVC055,0.00,VWS V14.01,2013-12-02 00:22:00,
2013-12-01 19:27:00,37.5,34.3,30.14,West,266,0.0,1.0,88,0.00,,OVC055,0.00,VWS V14.01,2013-12-02 00:27:00,
2013-12-01 19:30:00,37.5,34.3,30.14,West,266,0.0,1.0,88,0.00,,OVC055,0.00,VWS V14.01,2013-12-02 00:30:00,
2013-12-01 19:32:00,37.3,34.1,30.14,West,266,0.0,0.0,88,0.00,,OVC055,0.00,VWS V14.01,2013-12-02 00:32:00,
2013-12-01 19:37:00,37.0,33.8,30.13,West,266,0.0,0.0,88,0.00,,OVC055,0.00,VWS V14.01,2013-12-02 00:37:00,
2013-12-01 19:42:00,36.6,33.4,30.13,West,266,0.0,0.0,88,0.00,,OVC055,0.00,VWS V14.01,2013-12-02 00:42:00,
2013-12-01 19:47:00,36.2,33.3,30.14,West,266,0.0,0.0,89,0.00,,OVC055,0.00,VWS V14.01,2013-12-02 00:47:00,
2013-12-01 19:52:00,36.0,33.4,30.14,West,266,0.0,0.0,90,0.00,,OVC055,0.00,VWS V14.01,2013-12-02 00:52:00,
2013-12-01 19:57:00,35.8,33.2,30.13,West,266,0.0,0.0,90,0.00,,OVC055,0.00,VWS V14.01,2013-12-02 00:57:00,
2013-12-01 20:00:00,35.8,33.2,30.13,West,266,0.0,0.0,90,0.00,,OVC055,0.00,VWS V14.01,2013-12-02 01:00:00,
2013-12-01 20:02:00,35.5,32.9,30.13,West,266,0.0,0.0,90,0.00,,OVC055,0.00,VWS V14.01,2013-12-02 01:02:00,
2013-12-01 20:07:00,35.3,32.9,30.13,West,266,0.0,0.0,91,0.00,,OVC055,0.00,VWS V14.01,2013-12-02 01:07:00,
2013-12-01 20:12:00,35.1,33.0,30.13,West,266,0.0,0.0,92,0.00,,OVC055,0.00,VWS V14.01,2013-12-02 01:12:00,
2013-12-01 20:17:00,34.8,32.7,30.13,West,266,0.0,0.0,92,0.00,,OVC055,0.00,VWS V14.01,2013-12-02 01:17:00,
2013-12-01 20:22:00,34.8,33.0,30.13,West,266,0.0,0.0,93,0.00,,OVC055,0.00,VWS V14.01,2013-12-02 01:22:00,
2013-12-01 20:27:00,34.6,32.5,30.13,West,266,0.0,0.0,92,0.00,,OVC055,0.00,VWS V14.01,2013-12-02 01:27:00,
2013-12-01 20:30:00,34.6,32.5,30.13,West,266,0.0,0.0,92,0.00,,OVC055,0.00,VWS V14.01,2013-12-02 01:30:00,
2013-12-01 20:32:00,34.3,32.5,30.13,West,266,0.0,0.0,93,0.00,,OVC055,0.00,VWS V14.01,2013-12-02 01:32:00,
2013-12-01 20:37:00,34.1,32.3,30.13,West,266,0.0,1.0,93,0.00,,OVC055,0.00,VWS V14.01,2013-12-02 01:37:00,
2013-12-01 20:42:00,33.8,32.0,30.13,West,266,0.0,1.0,93,0.00,,OVC055,0.00,VWS V14.01,2013-12-02 01:42:00,
2013-12-01 20:47:00,33.6,31.8,30.13,West,266,0.0,1.0,93,0.00,,OVC055,0.00,VWS V14.01,2013-12-02 01:47:00,
2013-12-01 20:52:00,33.5,32.0,30.13,West,266,0.0,1.0,94,0.00,,OVC055,0.00,VWS V14.01,2013-12-02 01:52:00,
2013-12-01 20:57:00,33.4,31.9,30.13,West,266,0.0,1.0,94,0.00,,OVC055,0.00,VWS V14.01,2013-12-02 01:57:00,
2013-12-01 21:00:00,33.3,31.8,30.13,West,266,0.0,1.0,94,0.00,,OVC055,0.00,VWS V14.01,2013-12-02 02:00:00,
2013-12-01 21:02:00,33.0,31.2,30.13,West,266,0.0,0.0,93,0.00,,OVC055,0.00,VWS V14.01,2013-12-02 02:02:00,
2013-12-01 21:07:00,32.8,31.3,30.13,West,266,0.0,0.0,94,0.00,,OVC055,0.00,VWS V14.01,2013-12-02 02:07:00,
2013-12-01 21:12:00,32.7,31.4,30.13,West,266,0.0,0.0,95,0.00,,OVC055,0.00,VWS V14.01,2013-12-02 02:12:00,
2013-12-01 21:17:00,32.6,31.3,30.13,West,266,0.0,0.0,95,0.00,,OVC055,0.00,VWS V14.01,2013-12-02 02:17:00,
2013-12-01 21:22:00,32.6,31.6,30.13,West,266,0.0,0.0,96,0.00,,OVC055,0.00,VWS V14.01,2013-12-02 02:22:00,
2013-12-01 21:27:00,32.5,31.5,30.13,West,266,0.0,0.0,96,0.00,,OVC055,0.00,VWS V14.01,2013-12-02 02:27:00,
2013-12-01 21:30:00,32.5,31.2,30.13,West,266,0.0,0.0,95,0.00,,OVC055,0.00,VWS V14.01,2013-12-02 02:30:00,
2013-12-01 21:32:00,32.4,31.1,30.12,West,266,0.0,0.0,95,0.00,,OVC055,0.00,VWS V14.01,2013-12-02 02:32:00,
2013-12-01 21:37:00,32.2,31.2,30.12,West,266,0.0,0.0,96,0.00,,OVC055,0.00,VWS V14.01,2013-12-02 02:37:00,
2013-12-01 21:42:00,32.0,30.7,30.12,West,266,0.0,0.0,95,0.00,,OVC055,0.00,VWS V14.01,2013-12-02 02:42:00,
2013-12-01 21:47:00,31.8,30.8,30.12,West,266,0.0,0.0,96,0.00,,OVC055,0.00,VWS V14.01,2013-12-02 02:47:00,
2013-12-01 21:52:00,31.7,30.7,30.12,West,266,0.0,0.0,96,0.00,,OVC055,0.00,VWS V14.01,2013-12-02 02:52:00,
2013-12-01 21:57:00,31.5,30.5,30.12,West,266,0.0,0.0,96,0.00,,OVC055,0.00,VWS V14.01,2013-12-02 02:57:00,
2013-12-01 22:00:00,31.5,30.5,30.12,West,266,0.0,0.0,96,0.00,,OVC055,0.00,VWS V14.01,2013-12-02 03:00:00,
2013-12-01 22:02:00,31.4,30.4,30.12,West,266,0.0,0.0,96,0.00,,OVC055,0.00,VWS V14.01,2013-12-02 03:02:00,
2013-12-01 22:07:00,31.3,30.3,30.12,West,266,0.0,0.0,96,0.00,,OVC055,0.00,VWS V14.01,2013-12-02 03:07:00,
2013-12-01 22:12:00,31.2,30.2,30.12,West,266,0.0,0.0,96,0.00,,OVC055,0.00,VWS V14.01,2013-12-02 03:12:00,
2013-12-01 22:16:00,31.0,30.0,30.12,West,266,0.0,0.0,96,0.00,,OVC055,0.00,VWS V14.01,2013-12-02 03:16:00,
2013-12-01 22:21:00,30.8,29.8,30.12,West,266,0.0,0.0,96,0.00,,OVC055,0.00,VWS V14.01,2013-12-02 03:21:00,
2013-12-01 22:26:00,30.7,29.7,30.12,West,266,0.0,0.0,96,0.00,,OVC055,0.00,VWS V14.01,2013-12-02 03:26:00,
2013-12-01 22:30:00,30.7,30.0,30.12,West,266,0.0,0.0,97,0.00,,OVC055,0.00,VWS V14.01,2013-12-02 03:30:00,
2013-12-01 22:31:00,30.6,29.9,30.12,West,266,0.0,0.0,97,0.00,,OVC055,0.00,VWS V14.01,2013-12-02 03:31:00,
2013-12-01 22:36:00,30.7,30.0,30.12,West,266,0.0,0.0,97,0.00,,OVC055,0.00,VWS V14.01,2013-12-02 03:36:00,
2013-12-01 22:41:00,30.7,30.0,30.12,West,266,0.0,0.0,97,0.00,,OVC055,0.00,VWS V14.01,2013-12-02 03:41:00,
2013-12-01 22:46:00,30.7,30.0,30.12,West,266,0.0,0.0,97,0.00,,OVC055,0.00,VWS V14.01,2013-12-02 03:46:00,
2013-12-01 22:51:00,30.5,29.8,30.12,West,266,0.0,0.0,97,0.00,,OVC055,0.00,VWS V14.01,2013-12-02 03:51:00,
2013-12-01 22:56:00,30.3,29.5,30.12,West,266,0.0,0.0,97,0.00,,OVC055,0.00,VWS V14.01,2013-12-02 03:56:00,
2013-12-01 23:00:00,30.3,29.5,30.12,West,266,0.0,0.0,97,0.00,,OVC055,0.00,VWS V14.01,2013-12-02 04:00:00,
2013-12-01 23:01:00,30.2,29.5,30.12,West,266,0.0,0.0,97,0.00,,OVC055,0.00,VWS V14.01,2013-12-02 04:01:00,
2013-12-01 23:06:00,30.1,29.4,30.12,West,266,0.0,0.0,97,0.00,,OVC055,0.00,VWS V14.01,2013-12-02 04:06:00,
2013-12-01 23:11:00,30.0,29.2,30.11,West,266,0.0,0.0,97,0.00,,OVC055,0.00,VWS V14.01,2013-12-02 04:11:00,
2013-12-01 23:16:00,29.9,29.1,30.11,West,266,0.0,0.0,97,0.00,,OVC055,0.00,VWS V14.01,2013-12-02 04:16:00,
2013-12-01 23:21:00,29.8,29.0,30.11,West,266,0.0,0.0,97,0.00,,OVC055,0.00,VWS V14.01,2013-12-02 04:21:00,
2013-12-01 23:26:00,29.7,29.0,30.11,West,266,0.0,0.0,97,0.00,,OVC055,0.00,VWS V14.01,2013-12-02 04:26:00,
2013-12-01 23:30:00,29.7,29.0,30.11,West,266,0.0,0.0,97,0.00,,OVC055,0.00,VWS V14.01,2013-12-02 04:30:00,
2013-12-01 23:31:00,29.7,29.0,30.11,West,266,0.0,0.0,97,0.00,,OVC055,0.00,VWS V14.01,2013-12-02 04:31:00,
2013-12-01 23:36:00,29.6,28.9,30.11,West,266,0.0,0.0,97,0.00,,OVC055,0.00,VWS V14.01,2013-12-02 04:36:00,
2013-12-01 23:41:00,29.5,29.0,30.11,West,266,0.0,0.0,98,0.00,,OVC055,0.00,VWS V14.01,2013-12-02 04:41:00,
2013-12-01 23:46:00,29.4,28.9,30.11,West,266,0.0,0.0,98,0.00,,OVC055,0.00,VWS V14.01,2013-12-02 04:46:00,
2013-12-01 23:51:00,29.4,28.9,30.11,West,266,0.0,0.0,98,0.00,,OVC055,0.00,VWS V14.01,2013-12-02 04:51:00,
2013-12-01 23:56:00,29.3,28.8,30.10,West,266,0.0,0.0,98,0.00,,OVC055,0.00,VWS V14.01,2013-12-02 04:56:00,